Location: Central Falls
(41.8900°N, 71.3929°W)
Time: 06:44:05
(UTC+00:00)

Vanguard 3 - Pass Details

Date: 03 December 2023
Orbit: 508 x 3239 km, 33.4° (Epoch: 01 March)

Event Time Altitude Azimuth Distance (km) Brightness Sun altitude
Rises 00:43:24 0° 205° (SSW) 6,596 12.0 -38.1°
Reaches altitude 10° 00:50:12 10° 190° (S) 5,083 11.2 -39.4°
Enters shadow 00:55:13 16° 171° (S) 4,114 10.5 -40.3°
